EW8163 Weather Reports


Display with metric or nautical units.
time (UTC)temp
F
wind
direction
speed
MPH
gust
MPH
rain 1hr
in
rain 24hr
in
rain mn
in
humidity
%
barometer
mb
20260508093917 40 270 0.0 0.0 0.00 0.00 0.00 96 1022.2
20260508092917 40 270 0.0 0.0 0.00 0.00 0.00 96 1022.1
20260508091916 41 270 0.0 0.0 0.00 0.00 0.00 96 1022.3
20260508091818 41 270 0.0 0.0 0.00 0.00 0.00 96 1022.3
20260508091718 41 270 0.0 0.0 0.00 0.00 0.00 96 1022.3
20260508090718 41 270 0.0 0.0 0.00 0.00 0.00 96 1022.3
20260508085718 41 270 0.0 0.0 0.00 0.00 0.00 96 1022.2
20260508084717 41 270 0.0 0.0 0.00 0.00 0.00 96 1022.3
20260508083716 41 270 0.0 0.0 0.00 0.00 0.00 97 1022.5
20260508083620 41 270 0.0 0.0 0.00 0.00 0.00 97 1022.5
20260508082717 41 270 0.0 0.0 0.00 0.00 0.00 95 1022.5
20260508082616 41 270 0.0 0.0 0.00 0.00 0.00 96 1022.7
20260508081616 42 270 0.0 0.0 0.00 0.00 0.00 96 1022.6
20260508081516 42 270 0.0 0.0 0.00 0.00 0.00 96 1022.7
20260508080517 42 270 0.0 0.0 0.00 0.00 0.00 96 1022.9
20260508075519 42 270 0.0 0.0 0.00 0.00 0.00 96 1022.8
20260508074616 42 270 0.0 0.0 0.00 0.00 0.00 95 1022.9
20260508073618 42 270 0.0 0.0 0.00 0.00 0.00 94 1022.8
20260508072616 43 270 0.0 0.0 0.00 0.00 0.00 96 1022.7
20260508071618 43 270 0.0 0.0 0.00 0.00 0.00 94 1022.8
20260508071517 43 270 0.0 0.0 0.00 0.00 0.00 94 1022.8
20260508070518 43 270 0.0 0.0 0.00 0.00 0.00 94 1022.8
20260508065531 43 270 0.0 0.0 0.00 0.00 0.00 94 1022.9
20260508064530 44 270 0.0 0.0 0.00 0.00 0.00 95 1022.9
20260508063628 44 270 0.0 0.0 0.00 0.00 0.00 94 1022.8
20260508063529 44 270 0.0 0.0 0.00 0.00 0.00 94 1022.8
20260508062528 44 270 0.0 0.0 0.00 0.00 0.00 93 1022.8
20260508060529 45 270 0.0 0.0 0.00 0.00 0.00 93 1022.9
20260508054530 46 270 0.0 0.0 0.00 0.00 0.00 93 1023.1
20260508053529 46 270 0.0 0.0 0.00 0.00 0.00 93 1023.2
20260508052627 46 270 0.0 0.0 0.00 0.00 0.00 91 1023.2
20260508051629 47 270 0.0 0.0 0.00 0.00 0.00 92 1023.3
20260508050630 47 270 0.0 0.0 0.00 0.00 0.00 90 1023.3
20260508050528 47 270 0.0 0.0 0.00 0.00 0.00 90 1023.3
20260508045627 48 270 0.0 0.0 0.00 0.00 0.00 90 1023.2
20260508044630 48 270 0.0 0.0 0.00 0.00 0.00 89 1023.3
20260508043729 48 270 0.0 0.0 0.00 0.00 0.00 89 1023.2
20260508043628 48 270 0.0 0.0 0.00 0.00 0.00 89 1023.3
20260508041728 49 270 0.0 0.0 0.00 0.00 0.00 87 1023.1
20260508040730 50 270 0.0 0.0 0.00 0.00 0.00 86 1023.0
20260508035829 50 270 0.0 0.0 0.00 0.00 0.00 85 1022.9
20260508034028 51 270 0.0 0.0 0.00 0.00 0.00 82 1022.8
20260508032030 53 270 0.0 0.0 0.00 0.00 0.00 79 1022.5
20260508031029 53 270 0.0 0.0 0.00 0.00 0.00 79 1022.5
20260508030929 53 270 0.0 0.0 0.00 0.00 0.00 78 1022.3
20260508024928 55 270 0.0 0.0 0.00 0.00 0.00 76 1022.3
20260508023928 56 270 0.0 0.0 0.00 0.00 0.00 74 1022.2
20260508022930 57 270 0.0 0.0 0.00 0.00 0.00 71 1022.1
20260508022028 58 270 0.0 1.0 0.00 0.00 0.00 69 1022.1
20260508021127 59 247 0.0 0.0 0.00 0.00 0.00 65 1022.0
20260508020128 61 247 0.0 0.0 0.00 0.00 0.00 62 1022.1
20260508015129 62 247 0.0 0.0 0.00 0.00 0.00 57 1021.9
20260508014227 65 225 0.0 1.0 0.00 0.00 0.00 51 1021.7
20260508013228 68 135 0.0 0.0 0.00 0.00 0.00 44 1021.7
20260508012228 71 174 2.0 4.0 0.00 0.00 0.00 40 1021.7
20260508011229 72 180 1.0 4.0 0.00 0.00 0.00 40 1021.4
20260508010230 71 225 0.0 3.0 0.00 0.00 0.00 41 1021.5
20260508005229 71 157 0.0 0.0 0.00 0.00 0.00 40 1021.7
20260508005129 71 152 1.0 4.0 0.00 0.00 0.00 39 1021.6
20260508003128 72 225 0.0 1.0 0.00 0.00 0.00 36 1021.6
20260508002128 73 194 4.0 6.0 0.00 0.00 0.00 36 1021.5
20260508001128 72 225 4.0 7.0 0.00 0.00 0.00 36 1021.6
20260508000145 73 225 3.0 5.0 0.00 0.00 0.00 36 1021.6
20260507235128 73 155 1.0 3.0 0.00 0.00 0.00 35 1021.7
20260507234129 73 180 2.0 4.0 0.00 0.00 0.00 34 1021.5
20260507234030 73 146 0.0 2.0 0.00 0.00 0.00 34 1021.5
20260507231029 74 158 4.0 8.0 0.00 0.00 0.00 35 1021.5
20260507225029 74 251 2.0 8.0 0.00 0.00 0.00 33 1021.9
20260507224127 74 198 2.0 5.0 0.00 0.00 0.00 33 1021.7
20260507223129 73 211 3.0 6.0 0.00 0.00 0.00 31 1021.7
20260507222228 73 235 1.0 6.0 0.00 0.00 0.00 32 1021.8
20260507221228 73 232 4.0 8.0 0.00 0.00 0.00 32 1022.1
20260507220327 74 206 2.0 5.0 0.00 0.00 0.00 32 1021.9
20260507215329 74 225 7.0 13.0 0.00 0.00 0.00 31 1021.7
20260507213429 75 191 6.0 12.0 0.00 0.00 0.00 29 1022.2
20260507212427 75 169 2.0 5.0 0.00 0.00 0.00 29 1022.1
20260507211428 74 182 3.0 7.0 0.00 0.00 0.00 28 1022.3
20260507210429 75 172 4.0 8.0 0.00 0.00 0.00 27 1022.3
20260507204430 74 210 3.0 11.0 0.00 0.00 0.00 26 1022.4
20260507203427 74 222 4.0 12.0 0.00 0.00 0.00 25 1022.5
20260507203328 74 164 3.0 7.0 0.00 0.00 0.00 25 1022.4
20260507203229 73 163 2.0 7.0 0.00 0.00 0.00 25 1022.3
20260507202228 73 165 1.0 6.0 0.00 0.00 0.00 28 1022.5
20260507201327 73 292 0.0 2.0 0.00 0.00 0.00 33 1022.6
20260507201228 73 130 0.0 2.0 0.00 0.00 0.00 33 1022.7
20260507200246 71 162 1.0 7.0 0.00 0.00 0.00 38 1022.6
20260507195329 70 270 0.0 2.0 0.00 0.00 0.00 44 1022.5
20260507194328 69 180 0.0 2.0 0.00 0.00 0.00 46 1022.5
20260507194228 69 135 0.0 2.0 0.00 0.00 0.00 47 1022.5
20260507193227 69 11 3.0 5.0 0.00 0.00 0.00 47 1022.5
20260507193145 69 349 4.0 6.0 0.00 0.00 0.00 47 1022.5
20260507192129 68 112 0.0 3.0 0.00 0.00 0.00 50 1022.5
20260507191128 67 54 1.0 3.0 0.00 0.00 0.00 51 1022.6
20260507190129 68 34 1.0 6.0 0.00 0.00 0.00 51 1022.7
20260507190028 68 29 1.0 5.0 0.00 0.00 0.00 50 1022.7
20260507185029 68 11 4.0 6.0 0.00 0.00 0.00 50 1022.7
20260507184028 68 18 3.0 5.0 0.00 0.00 0.00 47 1022.8
20260507183030 69 68 0.0 2.0 0.00 0.00 0.00 42 1022.7
20260507182028 69 341 2.0 4.0 0.00 0.00 0.00 40 1022.7
20260507181030 69 48 2.0 4.0 0.00 0.00 0.00 41 1022.7
20260507180028 70 22 3.0 5.0 0.00 0.00 0.00 38 1022.7
20260507173028 69 106 0.0 1.0 0.00 0.00 0.00 41 1022.7
20260507172027 69 7 0.0 4.0 0.00 0.00 0.00 40 1022.7
20260507170028 70 8 2.0 3.0 0.00 0.00 0.00 41 1022.7
20260507165029 69 57 0.0 3.0 0.00 0.00 0.00 39 1022.7
20260507164028 68 135 1.0 2.0 0.00 0.00 0.00 45 1022.8
20260507162028 64 270 0.0 0.0 0.00 0.00 0.00 57 1022.9
20260507161028 63 270 0.0 0.0 0.00 0.00 0.00 59 1023.0
20260507160028 60 270 0.0 0.0 0.00 0.00 0.00 68 1023.1
20260507155928 60 270 0.0 0.0 0.00 0.00 0.00 69 1023.2
20260507154928 59 270 0.0 0.0 0.00 0.00 0.00 73 1023.1
20260507153926 57 270 0.0 0.0 0.00 0.00 0.00 78 1023.2
20260507152927 54 270 0.0 0.0 0.00 0.00 0.00 86 1023.3
20260507151928 51 270 0.0 0.0 0.00 0.00 0.00 89 1023.3
20260507151027 50 270 0.0 0.0 0.00 0.00 0.00 92 1023.2
20260507150032 47 270 0.0 0.0 0.00 0.00 0.00 92 1023.2
20260507145029 45 270 0.0 0.0 0.00 0.00 0.00 97 1023.2
20260507144128 43 270 0.0 0.0 0.00 0.00 0.00 99 1023.2
20260507142128 40 270 0.0 0.0 0.00 0.00 0.00 98 1022.9
20260507141147 39 270 0.0 0.0 0.00 0.00 0.00 98 1022.7
20260507140130 37 270 0.0 0.0 0.00 0.00 0.00 98 1022.6
20260507135226 36 270 0.0 0.0 0.00 0.00 0.00 98 1022.5
20260507134227 35 270 0.0 0.0 0.00 0.00 0.00 98 1022.5
20260507132228 35 270 0.0 0.0 0.00 0.00 0.00 98 1022.3
20260507131326 35 270 0.0 0.0 0.00 0.00 0.00 98 1022.3
20260507130328 35 270 0.0 0.0 0.00 0.00 0.00 97 1022.1
20260507125229 35 270 0.0 0.0 0.00 0.00 0.00 98 1022.0
20260507124244 35 270 0.0 0.0 0.00 0.00 0.00 98 1022.0
20260507123228 35 270 0.0 0.0 0.00 0.00 0.00 98 1022.0
20260507122228 35 270 0.0 0.0 0.00 0.00 0.00 98 1022.1
20260507121229 35 270 0.0 0.0 0.00 0.00 0.00 98 1022.1
20260507120229 35 270 0.0 0.0 0.00 0.00 0.00 98 1022.2
20260507113226 36 270 0.0 0.0 0.00 0.00 0.00 98 1022.2
20260507113127 36 270 0.0 0.0 0.00 0.00 0.00 98 1022.3
20260507112127 36 270 0.0 0.0 0.00 0.00 0.00 97 1022.3
20260507111128 36 270 0.0 0.0 0.00 0.00 0.00 98 1022.4
20260507110128 36 270 0.0 0.0 0.00 0.00 0.00 98 1022.3
20260507110029 36 270 0.0 0.0 0.00 0.00 0.00 98 1022.3
20260507105126 36 270 0.0 0.0 0.00 0.00 0.00 98 1022.3
20260507104126 37 270 0.0 0.0 0.00 0.00 0.00 98 1022.3
20260507103128 36 270 0.0 0.0 0.00 0.00 0.00 97 1022.3
20260507102227 36 270 0.0 0.0 0.00 0.00 0.00 98 1022.3
20260507101228 36 270 0.0 0.0 0.00 0.00 0.00 97 1022.3
20260507100226 37 270 0.0 0.0 0.00 0.00 0.00 96 1022.3